Location: Blue Sky Observatory
(43.1153°N, 70.9036°W)
Time: 01:22:40
(UTC-05:00)

Amateur Radio Satellites - All Passes

Search period start: 26 January 2015 00:52
Search period end: 27 January 2015 00:52
Location: Blue Sky Observatory, 43.1153°N, 70.9036°W

Satellite Date Start Highest point End Downlink Frequencies (MHz)
Time Altitude Azimuth
Oscar 19 26 Jan 00:55:00 00:59:57 45° 98° (E) 01:04:52 437.125/150
ITAMSAT 1 26 Jan 01:03:18 01:06:57 20° 91° (E) 01:10:45 435.822/435.867
M-CUBED/EXP-1 PRIME 26 Jan 01:11:43 01:15:21 31° 66° (ENE) 01:18:47 437.505
SWISSCUBE 26 Jan 01:16:20 01:20:26 28° 265° (W) 01:24:29 437.505
KKS-1 26 Jan 01:17:49 01:22:14 63° 74° (ENE) 01:26:42 437.445
STARS 26 Jan 01:20:19 01:24:31 44° 72° (ENE) 01:28:48 437.465
GONETS M04 26 Jan 01:31:33 01:40:20 86° 97° (E) 01:49:07
BEESAT 26 Jan 01:33:32 01:37:10 21° 268° (W) 01:40:41 436.000
ITUPSAT 1 26 Jan 01:35:00 01:38:36 21° 268° (W) 01:42:07 437.325
Gurwin Techsat 1B 26 Jan 01:37:16 01:41:46 28° 94° (E) 01:46:21 435.225
ISS 26 Jan 01:37:36 01:40:05 19° 353° (N) 01:42:34 145.825
O/OREOS (USA 219) 26 Jan 01:39:48 01:44:01 35° 59° (ENE) 01:48:14 437.305
AUBIESAT-1 26 Jan 01:47:39 01:51:46 71° 70° (ENE) 01:55:34 437.475
BEESAT 2 26 Jan 02:11:39 02:14:53 23° 114° (ESE) 02:18:13 435.950
BEESAT 3 26 Jan 02:29:00 02:32:48 39° 117° (ESE) 02:36:43 437.485
MOZHAYETS 4 26 Jan 02:31:28 02:34:14 16° 64° (ENE) 02:37:10
Oscar 19 26 Jan 02:34:55 02:39:04 24° 295° (WNW) 02:43:06 437.125/150
ITAMSAT 1 26 Jan 02:41:45 02:46:51 55° 289° (WNW) 02:51:57 435.822/435.867
M-CUBED/EXP-1 PRIME 26 Jan 02:47:02 02:50:23 22° 259° (W) 02:53:28 437.505
CUSAT 1 26 Jan 02:53:52 02:59:46 24° 83° (E) 03:06:13 437.405
HORYU 2 26 Jan 02:56:34 03:00:54 50° 99° (E) 03:05:14 437.375
KKS-1 26 Jan 02:57:09 02:59:24 13° 272° (W) 03:01:27 437.445
STARS 26 Jan 02:58:07 03:01:17 18° 269° (W) 03:04:21 437.465
JAS-2 26 Jan 03:03:39 03:05:33 12° 87° (E) 03:07:55 435.910
ISS 26 Jan 03:14:42 03:17:24 23° 13° (NNE) 03:20:07 145.825
Gurwin Techsat 1B 26 Jan 03:16:56 03:21:53 39° 291° (WNW) 03:26:46 435.225
PCSat 26 Jan 03:18:38 03:20:19 12° 104° (ESE) 03:22:19 145.827
O/OREOS (USA 219) 26 Jan 03:19:30 03:23:19 25° 256° (WSW) 03:27:02 437.305
AIST 2 26 Jan 03:24:56 03:29:05 56° 120° (ESE) 03:33:20 435.215
GONETS M04 26 Jan 03:31:57 03:38:32 22° 300° (WNW) 03:44:44
AO-7 26 Jan 03:37:25 03:45:30 52° 101° (E) 03:53:33 29.400- 29.500
DANDE 26 Jan 03:45:51 03:53:17 46° 90° (E) 04:01:29 436.750
BEESAT 2 26 Jan 03:49:03 03:52:56 38° 311° (NW) 03:56:52 435.950
RS-15 26 Jan 03:56:23 04:05:23 33° 107° (ESE) 04:14:44 29.354- 29.394
MOZHAYETS 4 26 Jan 04:06:33 04:11:06 57° 261° (W) 04:15:38
BEESAT 3 26 Jan 04:07:39 04:11:06 24° 316° (NW) 04:14:32 437.485
PRISM 26 Jan 04:12:35 04:15:26 19° 66° (ENE) 04:18:24 437.425
CUBESAT XI-V 26 Jan 04:13:44 04:16:09 15° 63° (ENE) 04:18:47 437.345
STRAND 1 26 Jan 04:28:25 04:31:44 18° 62° (ENE) 04:35:13 437.568
CUSAT 1 26 Jan 04:33:59 04:42:01 82° 281° (W) 04:50:34 437.405
HORYU 2 26 Jan 04:34:14 04:37:15 18° 296° (WNW) 04:40:06 437.375
CUTE-I 26 Jan 04:39:42 04:41:16 11° 86° (E) 04:43:11 437.470
JAS-2 26 Jan 04:45:53 04:51:25 89° 103° (ESE) 04:57:36 435.910
ISS 26 Jan 04:50:59 04:54:18 81° 32° (NNE) 04:57:37 145.825
PCSat 26 Jan 04:57:36 05:03:01 86° 122° (ESE) 05:08:30 145.827
AIST 2 26 Jan 05:04:50 05:08:05 20° 319° (NW) 05:11:17 435.215
DANDE 26 Jan 05:29:07 05:36:50 46° 290° (WNW) 05:45:06 436.750
AO-7 26 Jan 05:30:32 05:38:09 40° 300° (WNW) 05:45:35 29.400- 29.500
YUBILEINY 26 Jan 05:38:56 05:46:44 35° 68° (ENE) 05:54:41 435.215
PRISM 26 Jan 05:46:52 05:50:45 39° 262° (W) 05:54:37 437.425
CUBESAT XI-V 26 Jan 05:48:35 05:53:09 65° 259° (W) 05:57:46 437.345
Cubesat XI-IV 26 Jan 05:55:46 06:01:06 60° 101° (E) 06:06:25 437.490
STRAND 1 26 Jan 06:05:28 06:10:31 62° 259° (W) 06:15:36 437.568
RS-15 26 Jan 06:06:02 06:16:57 73° 308° (NW) 06:28:02 29.354- 29.394
CUTE-I 26 Jan 06:16:49 06:22:14 89° 98° (E) 06:27:38 437.470
CUSAT 1 26 Jan 06:20:25 06:26:30 21° 302° (WNW) 06:32:21 437.405
ISS 26 Jan 06:28:45 06:30:27 13° 228° (SW) 06:32:03 145.825
JAS-2 26 Jan 06:33:08 06:36:04 14° 299° (WNW) 06:38:50 435.910
PCSat 26 Jan 06:43:21 06:47:13 19° 320° (NW) 06:50:58 145.827
DANDE 26 Jan 07:20:34 07:22:57 11° 313° (NW) 07:24:45 436.750
HO-68 26 Jan 07:25:58 07:31:03 21° 90° (E) 07:36:24 435.675
YUBILEINY 26 Jan 07:35:31 07:44:00 54° 269° (W) 07:52:25 435.215
Cubesat XI-IV 26 Jan 07:36:52 07:40:48 20° 298° (WNW) 07:44:35 437.490
SEEDS 26 Jan 07:47:01 07:49:39 16° 90° (E) 07:52:24 437.485
CUTE-I 26 Jan 07:58:51 08:01:39 14° 301° (WNW) 08:04:13 437.470
BRITE-PL 26 Jan 07:59:29 08:04:58 45° 96° (E) 08:10:18 437.365/2234.400
UNISAT 6 26 Jan 08:03:05 08:04:51 12° 61° (ENE) 08:06:50 437.425
GOMX 1 26 Jan 08:13:01 08:18:13 42° 96° (E) 08:23:15 467.674
COMPASS 1 26 Jan 08:17:54 08:21:34 29° 95° (E) 08:25:14 437.405
CANX-2 26 Jan 08:21:22 08:25:31 50° 99° (E) 08:29:38 2200.000
RS-15 26 Jan 08:22:27 08:31:43 29° 338° (NNW) 08:41:03 29.354- 29.394
QB50P1 26 Jan 08:27:25 08:28:38 11° 62° (ENE) 08:30:05 145.935-145.965
Oscar 11 26 Jan 08:35:41 08:38:53 21° 92° (E) 08:42:11 145.826/435.025
ANTELSAT 26 Jan 08:36:26 08:40:15 25° 67° (ENE) 08:44:09 437.575/2403.000
POLYITAN 1 26 Jan 08:38:29 08:40:54 15° 64° (ENE) 08:43:29 437.675
DOVE 4 26 Jan 08:41:42 08:46:54 56° 99° (E) 08:51:53 437.250
TIGRISAT 26 Jan 08:45:59 08:50:04 30° 69° (ENE) 08:54:12 435.000
CUTE 1.7 + AOD 2 26 Jan 08:46:00 08:50:16 88° 98° (E) 08:54:29 437.475
AAUSAT CUBESAT 2 26 Jan 08:46:38 08:50:44 54° 100° (E) 08:54:47 437.432
CUBEBUG 2 26 Jan 08:53:52 08:57:35 24° 92° (E) 09:01:17 437.445
CINEMA 3 26 Jan 08:54:41 08:59:22 42° 97° (E) 09:03:52 145.822/145.860
BUGSAT 1 26 Jan 08:56:02 08:58:34 17° 65° (ENE) 09:01:16 437.445
POPSAT HIP 1 26 Jan 08:59:19 09:02:43 24° 67° (ENE) 09:06:11 437.405
DELFI C3 26 Jan 09:01:53 09:05:29 31° 96° (E) 09:09:06 145.870
DUCHIFAT 1 26 Jan 09:03:55 09:07:25 26° 68° (ENE) 09:11:01 145.980
UKube-1 26 Jan 09:08:48 09:12:27 26° 95° (E) 09:16:10 .
PHONESAT 2.4 26 Jan 09:10:44 09:11:18 10° 147° (SSE) 09:11:58 2401.200-2431.200
HO-68 26 Jan 09:12:24 09:19:34 74° 289° (WNW) 09:26:41 435.675
ZACube-1 26 Jan 09:16:34 09:20:25 28° 94° (E) 09:24:14 437.345
SEEDS 26 Jan 09:21:45 09:25:46 43° 287° (WNW) 09:29:44 437.485
DX 1 26 Jan 09:25:07 09:29:17 41° 98° (E) 09:33:27 434.975-435.025
FUNcube-1 26 Jan 09:29:30 09:33:41 38° 97° (E) 09:37:46 145.935
AISAT 26 Jan 09:33:47 09:37:05 20° 92° (E) 09:40:29 437.250
UNISAT 6 26 Jan 09:36:19 09:41:03 85° 260° (W) 09:45:48 437.425
NANOSAT C BR1 26 Jan 09:36:54 09:41:05 59° 73° (ENE) 09:45:19 145.865
BRITE-PL 26 Jan 09:38:23 09:43:14 29° 294° (WNW) 09:47:54 437.365/2234.400
UWE-3 26 Jan 09:40:43 09:45:16 62° 100° (E) 09:49:39 435.000/436.395/437.385
HUMSAT D 26 Jan 09:46:24 09:50:13 32° 95° (E) 09:54:01 437.325/437.525
QB50P2 26 Jan 09:49:07 09:53:23 82° 76° (ENE) 09:57:43 145.880/145.840
GOMX 1 26 Jan 09:51:28 09:56:08 28° 294° (WNW) 10:00:35 467.674
COMPASS 1 26 Jan 09:53:47 09:57:13 24° 292° (WNW) 10:00:32 437.405
50 SAT 26 Jan 09:54:15 09:57:48 28° 95° (E) 10:01:20 437.505
CANX-2 26 Jan 09:58:30 10:01:07 16° 295° (WNW) 10:03:34 2200.000
QB50P1 26 Jan 09:59:43 10:03:59 78° 258° (WSW) 10:08:18 145.935-145.965
VELOX 1 26 Jan 10:03:15 10:07:29 39° 98° (E) 10:11:42 145.980
VERMONT LUNAR 26 Jan 10:07:17 10:10:26 31° 161° (SSE) 10:13:35 437.305
Oscar 11 26 Jan 10:11:15 10:15:14 36° 289° (WNW) 10:19:10 145.826/435.025
POLYITAN 1 26 Jan 10:12:13 10:16:27 56° 260° (W) 10:20:43 437.675
ANTELSAT 26 Jan 10:12:31 10:16:54 37° 263° (W) 10:21:17 437.575/2403.000
DOVE 4 26 Jan 10:20:20 10:24:15 21° 296° (WNW) 10:27:55 437.250
SO-50 26 Jan 10:21:24 10:25:32 36° 116° (ESE) 10:29:51 436.795
CUBEBUG 1 26 Jan 10:22:23 10:26:06 26° 94° (E) 10:29:53 437.445
TIGRISAT 26 Jan 10:22:37 10:26:47 30° 265° (W) 10:30:56 435.000
AAUSAT CUBESAT 2 26 Jan 10:23:42 10:26:00 14° 296° (WNW) 10:28:09 437.432
BUGSAT 1 26 Jan 10:29:51 10:33:46 45° 261° (W) 10:37:45 437.445
BEESAT 2 26 Jan 10:30:07 10:33:30 23° 43° (NE) 10:36:54 435.950
CUBEBUG 2 26 Jan 10:30:10 10:34:25 35° 291° (WNW) 10:38:30 437.445
CINEMA 3 26 Jan 10:32:25 10:36:19 23° 294° (WNW) 10:40:01 145.822/145.860
AIST 1 26 Jan 10:34:22 10:37:38 22° 89° (E) 10:41:00
POPSAT HIP 1 26 Jan 10:34:37 10:38:29 32° 264° (W) 10:42:22 437.405
DELFI C3 26 Jan 10:37:26 10:40:36 22° 292° (WNW) 10:43:42 145.870
Oscar 19 26 Jan 10:38:26 10:39:17 10° 57° (ENE) 10:40:24 437.125/150
DUCHIFAT 1 26 Jan 10:39:28 10:43:13 29° 265° (W) 10:46:58 145.980
RS-15 26 Jan 10:40:07 10:48:49 25° 12° (NNE) 10:57:55 29.354- 29.394
UKube-1 26 Jan 10:44:49 10:48:39 30° 292° (WNW) 10:52:25 .
PHONESAT 2.4 26 Jan 10:45:58 10:49:16 34° 162° (SSE) 10:52:36 2401.200-2431.200
BEESAT 3 26 Jan 10:47:31 10:51:22 35° 48° (NE) 10:55:11 437.485
ZACube-1 26 Jan 10:52:54 10:56:46 28° 292° (WNW) 11:00:30 437.345
ESTCUBE 1 26 Jan 11:01:24 11:05:57 74° 103° (ESE) 11:10:28 437.505/2401.250
DX 1 26 Jan 11:02:00 11:05:18 21° 295° (WNW) 11:08:30 434.975-435.025
HO-68 26 Jan 11:02:03 11:06:16 16° 308° (NW) 11:10:08 435.675
FUNcube-1 26 Jan 11:06:22 11:09:50 22° 294° (WNW) 11:13:08 145.935
AISAT 26 Jan 11:09:40 11:13:55 41° 289° (WNW) 11:18:08 437.250
TISAT 1 26 Jan 11:10:36 11:13:48 21° 92° (E) 11:17:06 437.305
NANOSAT C BR1 26 Jan 11:15:23 11:17:26 13° 272° (W) 11:19:17 145.865
UWE-3 26 Jan 11:18:42 11:21:20 15° 297° (WNW) 11:23:46 435.000/436.395/437.385
HUMSAT D 26 Jan 11:22:27 11:25:54 23° 293° (WNW) 11:29:13 437.325/437.525
50 SAT 26 Jan 11:29:31 11:32:51 24° 292° (WNW) 11:36:04 437.505
VELOX 1 26 Jan 11:40:22 11:43:52 22° 294° (WNW) 11:47:15 145.980
GONETS M04 26 Jan 11:40:49 11:49:02 45° 72° (ENE) 11:57:18
VERMONT LUNAR 26 Jan 11:44:50 11:48:17 56° 177° (S) 11:51:45 437.305
AIST 2 26 Jan 11:46:02 11:50:14 50° 51° (NE) 11:54:23 435.215
SPROUT 26 Jan 11:56:51 12:01:13 68° 101° (ESE) 12:05:32 437.525
CUBEBUG 1 26 Jan 11:58:35 12:02:31 31° 291° (WNW) 12:06:23 437.445
ITUPSAT 1 26 Jan 11:58:44 11:59:15 10° 86° (E) 12:00:07 437.325
SO-50 26 Jan 12:01:59 12:06:09 32° 316° (NW) 12:10:24 436.795
PCSat 26 Jan 12:02:19 12:05:45 17° 38° (NE) 12:09:20 145.827
BEESAT 2 26 Jan 12:07:56 12:11:55 42° 242° (WSW) 12:15:49 435.950
AIST 1 26 Jan 12:11:24 12:15:11 30° 286° (WNW) 12:18:57
Oscar 19 26 Jan 12:12:39 12:17:49 72° 74° (ENE) 12:23:02 437.125/150
ITAMSAT 1 26 Jan 12:22:01 12:26:34 33° 67° (ENE) 12:31:13 435.822/435.867
PHONESAT 2.4 26 Jan 12:24:00 12:27:35 57° 179° (S) 12:31:12 2401.200-2431.200
BEESAT 3 26 Jan 12:25:56 12:29:23 25° 246° (WSW) 12:32:42 437.485
ESTCUBE 1 26 Jan 12:40:11 12:42:19 13° 298° (WNW) 12:44:15 437.505/2401.250
TISAT 1 26 Jan 12:45:48 12:49:47 36° 290° (WNW) 12:53:42 437.305
AO-7 26 Jan 12:48:38 12:53:49 19° 49° (NE) 12:59:18 29.400- 29.500
RS-15 26 Jan 12:53:43 13:04:38 53° 43° (NE) 13:16:06 29.354- 29.394
Gurwin Techsat 1B 26 Jan 12:59:10 13:04:13 48° 71° (ENE) 13:09:21 435.225
KKS-1 26 Jan 13:10:32 13:11:52 11° 87° (E) 13:13:27 437.445
SWISSCUBE 26 Jan 13:14:51 13:19:38 70° 102° (ESE) 13:24:25 437.505
VERMONT LUNAR 26 Jan 13:22:52 13:26:12 40° 194° (SSW) 13:29:32 437.305
AIST 2 26 Jan 13:25:36 13:28:31 18° 248° (WSW) 13:31:16 435.215
BEESAT 26 Jan 13:31:19 13:36:08 87° 278° (W) 13:40:54 436.000
ITUPSAT 1 26 Jan 13:33:06 13:37:56 86° 281° (WNW) 13:42:43 437.325
SPROUT 26 Jan 13:34:45 13:36:50 13° 297° (WNW) 13:38:44 437.525
CUSAT 1 26 Jan 13:34:52 13:38:40 16° 53° (NE) 13:42:15 437.405
GONETS M04 26 Jan 13:37:53 13:45:52 41° 273° (W) 13:53:44
PCSat 26 Jan 13:44:37 13:50:05 83° 58° (ENE) 13:55:32 145.827
Oscar 19 26 Jan 13:54:53 13:57:49 14° 272° (W) 14:00:30 437.125/150
HORYU 2 26 Jan 13:55:49 14:00:12 53° 73° (ENE) 14:04:37 437.375
ITAMSAT 1 26 Jan 14:01:26 14:06:05 32° 264° (W) 14:10:42 435.822/435.867
PHONESAT 2.4 26 Jan 14:02:31 14:05:57 39° 195° (SSW) 14:09:24 2401.200-2431.200
M-CUBED/EXP-1 PRIME 26 Jan 14:28:14 14:30:20 16° 98° (E) 14:32:34 437.505
DANDE 26 Jan 14:30:10 14:36:49 36° 66° (ENE) 14:42:03 436.750
AO-7 26 Jan 14:37:04 14:45:23 74° 69° (ENE) 14:53:45 29.400- 29.500
Gurwin Techsat 1B 26 Jan 14:40:20 14:44:31 23° 268° (W) 14:48:36 435.225
KKS-1 26 Jan 14:44:37 14:49:08 72° 285° (WNW) 14:53:35 437.445
STARS 26 Jan 14:45:29 14:49:58 78° 102° (ESE) 14:54:25 437.465
SWISSCUBE 26 Jan 14:54:17 14:57:01 15° 298° (WNW) 14:59:33 437.505
JAS-2 26 Jan 15:00:01 15:05:08 40° 70° (ENE) 15:10:01 435.910
VERMONT LUNAR 26 Jan 15:01:52 15:03:50 14° 209° (SSW) 15:05:43 437.305
AUBIESAT-1 26 Jan 15:03:21 15:06:29 40° 104° (ESE) 15:09:41 437.475
RS-15 26 Jan 15:06:20 15:17:17 54° 246° (WSW) 15:28:35 29.354- 29.394
BEESAT 26 Jan 15:11:46 15:13:19 11° 301° (WNW) 15:14:39 436.000
ITUPSAT 1 26 Jan 15:13:40 15:15:10 11° 301° (WNW) 15:16:24 437.325
CUSAT 1 26 Jan 15:16:23 15:23:16 89° 270° (W) 15:28:22 437.405
PCSat 26 Jan 15:30:03 15:32:53 14° 255° (WSW) 15:35:26 145.827
HORYU 2 26 Jan 15:34:26 15:37:15 16° 270° (W) 15:39:55 437.375
Cubesat XI-IV 26 Jan 15:41:43 15:44:43 16° 60° (ENE) 15:47:56 437.490
PHONESAT 2.4 26 Jan 15:42:05 15:44:00 13° 210° (SSW) 15:45:50 2401.200-2431.200
O/OREOS (USA 219) 26 Jan 15:53:15 15:57:12 32° 105° (ESE) 16:01:14 437.305
MOZHAYETS 4 26 Jan 16:01:02 16:05:04 31° 95° (E) 16:09:08
CUTE-I 26 Jan 16:01:27 16:05:28 23° 64° (ENE) 16:09:37 437.470
M-CUBED/EXP-1 PRIME 26 Jan 16:02:36 16:05:29 27° 295° (WNW) 16:08:21 437.505
DANDE 26 Jan 16:13:48 16:20:21 38° 272° (W) 16:25:22 436.750
STARS 26 Jan 16:24:06 16:25:54 12° 299° (WNW) 16:27:30 437.465
AO-7 26 Jan 16:32:17 16:39:02 25° 269° (W) 16:45:31 29.400- 29.500
AUBIESAT-1 26 Jan 16:39:43 16:41:11 12° 300° (WNW) 16:42:33 437.475
JAS-2 26 Jan 16:45:45 16:50:28 26° 266° (W) 16:54:50 435.910
CUSAT 1 26 Jan 17:02:11 17:04:51 12° 284° (WNW) 17:06:56 437.405
SO-50 26 Jan 17:12:59 17:14:26 11° 28° (NNE) 17:16:01 436.795
Cubesat XI-IV 26 Jan 17:18:55 17:24:14 78° 256° (WSW) 17:29:37 437.490
PRISM 26 Jan 17:28:54 17:32:20 25° 95° (E) 17:35:50 437.425
O/OREOS (USA 219) 26 Jan 17:32:46 17:36:39 27° 303° (WNW) 17:40:31 437.305
MOZHAYETS 4 26 Jan 17:38:22 17:42:15 28° 292° (WNW) 17:46:05
CUTE-I 26 Jan 17:40:04 17:45:15 51° 261° (W) 17:50:27 437.470
CUBESAT XI-V 26 Jan 17:44:41 17:48:44 29° 95° (E) 17:52:51 437.345
HO-68 26 Jan 17:56:51 18:01:34 20° 55° (NE) 18:06:32 435.675
STRAND 1 26 Jan 18:15:04 18:19:55 41° 98° (E) 18:24:47 437.568
SEEDS 26 Jan 18:41:03 18:43:23 15° 64° (ENE) 18:45:52 437.485
YUBILEINY 26 Jan 18:41:30 18:49:10 38° 87° (E) 18:57:01 435.215
SO-50 26 Jan 18:51:32 18:56:16 46° 50° (NE) 19:01:01 436.795
PRISM 26 Jan 19:04:18 19:07:52 28° 291° (WNW) 19:11:23 437.425
COMPASS 1 26 Jan 19:10:43 19:14:08 25° 68° (ENE) 19:17:37 437.405
BRITE-PL 26 Jan 19:11:02 19:15:50 52° 72° (ENE) 19:21:05 437.365/2234.400
CANX-2 26 Jan 19:15:20 19:19:23 42° 72° (ENE) 19:23:28 2200.000
GOMX 1 26 Jan 19:21:44 19:26:30 47° 71° (ENE) 19:31:38 467.674
CUBESAT XI-V 26 Jan 19:22:04 19:26:11 30° 291° (WNW) 19:30:15 437.345
Oscar 11 26 Jan 19:31:53 19:34:58 20° 66° (ENE) 19:38:09 145.826/435.025
AAUSAT CUBESAT 2 26 Jan 19:38:41 19:42:40 42° 72° (ENE) 19:46:41 437.432
CUTE 1.7 + AOD 2 26 Jan 19:39:41 19:43:58 71° 75° (ENE) 19:48:15 437.475
HO-68 26 Jan 19:41:19 19:48:29 89° 252° (WSW) 19:55:42 435.675
DOVE 4 26 Jan 19:47:47 19:52:41 61° 74° (ENE) 19:57:53 437.250
DELFI C3 26 Jan 19:51:31 19:54:46 24° 68° (ENE) 19:58:05 145.870
CUBEBUG 2 26 Jan 19:53:04 19:56:52 25° 67° (ENE) 20:00:48 437.445
STRAND 1 26 Jan 19:54:41 19:58:57 26° 295° (WNW) 20:03:09 437.568
CINEMA 3 26 Jan 19:56:58 20:01:35 44° 71° (ENE) 20:06:23 145.822/145.860
UKube-1 26 Jan 20:05:01 20:08:36 26° 68° (ENE) 20:12:16 .
ZACube-1 26 Jan 20:13:33 20:17:24 28° 68° (ENE) 20:21:20 437.345
SEEDS 26 Jan 20:14:37 20:18:50 55° 260° (W) 20:23:02 437.485
DX 1 26 Jan 20:21:45 20:25:48 40° 71° (ENE) 20:29:56 434.975-435.025
FUNcube-1 26 Jan 20:26:09 20:30:19 36° 70° (ENE) 20:34:34 145.935
SO-50 26 Jan 20:32:33 20:36:38 26° 246° (WSW) 20:40:38 436.795
AISAT 26 Jan 20:33:09 20:36:29 22° 66° (ENE) 20:39:56 437.250
YUBILEINY 26 Jan 20:37:29 20:45:51 49° 287° (WNW) 20:54:13 435.215
UWE-3 26 Jan 20:38:27 20:43:02 58° 73° (ENE) 20:47:41 435.000/436.395/437.385
HUMSAT D 26 Jan 20:39:34 20:43:14 28° 69° (ENE) 20:46:59 437.325/437.525
50 SAT 26 Jan 20:43:07 20:46:17 22° 67° (ENE) 20:49:33 437.505
COMPASS 1 26 Jan 20:46:00 20:49:47 30° 265° (W) 20:53:30 437.405
BRITE-PL 26 Jan 20:51:05 20:54:48 20° 272° (W) 20:58:35 437.365/2234.400
CANX-2 26 Jan 20:52:32 20:55:34 18° 269° (W) 20:58:29 2200.000
GOMX 1 26 Jan 21:01:01 21:04:58 22° 271° (W) 21:08:59 467.674
VELOX 1 26 Jan 21:02:04 21:06:12 40° 70° (ENE) 21:10:23 145.980
Oscar 11 26 Jan 21:06:46 21:10:55 41° 263° (W) 21:15:03 145.826/435.025
AAUSAT CUBESAT 2 26 Jan 21:15:44 21:18:35 17° 269° (W) 21:21:19 437.432
CUTE 1.7 + AOD 2 26 Jan 21:19:24 21:20:29 11° 273° (W) 21:21:19 437.475
CUBEBUG 1 26 Jan 21:19:57 21:23:29 25° 68° (ENE) 21:27:08 437.445
DELFI C3 26 Jan 21:26:18 21:29:55 29° 265° (W) 21:33:31 145.870
DOVE 4 26 Jan 21:27:40 21:31:00 17° 273° (W) 21:34:14 437.250
UNISAT 6 26 Jan 21:28:49 21:31:55 19° 91° (E) 21:35:06 437.425
CUBEBUG 2 26 Jan 21:28:59 21:33:25 38° 264° (W) 21:37:52 437.445
HO-68 26 Jan 21:32:54 21:37:19 16° 273° (W) 21:41:21 435.675
ISS 26 Jan 21:33:11 21:34:58 14° 133° (SE) 21:36:52 145.825
CINEMA 3 26 Jan 21:35:10 21:39:02 22° 269° (W) 21:42:54 145.822/145.860
QB50P2 26 Jan 21:35:39 21:37:31 13° 88° (E) 21:39:37 145.880/145.840
UKube-1 26 Jan 21:40:53 21:44:43 29° 264° (W) 21:48:31 .
QB50P1 26 Jan 21:45:22 21:48:03 16° 90° (E) 21:50:51 145.935-145.965
ZACube-1 26 Jan 21:49:34 21:53:42 32° 265° (W) 21:57:50 437.345
POLYITAN 1 26 Jan 21:57:39 22:01:02 22° 93° (E) 22:04:29 437.675
DX 1 26 Jan 21:59:06 22:02:17 19° 268° (W) 22:05:22 434.975-435.025
ESTCUBE 1 26 Jan 22:02:01 22:06:29 76° 75° (ENE) 22:10:59 437.505/2401.250
FUNcube-1 26 Jan 22:03:00 22:06:47 24° 267° (W) 22:10:29 145.935
ANTELSAT 26 Jan 22:03:45 22:08:02 43° 98° (E) 22:12:14 437.575/2403.000
TISAT 1 26 Jan 22:04:36 22:07:31 19° 66° (ENE) 22:10:34 437.305
AISAT 26 Jan 22:08:43 22:12:54 39° 262° (W) 22:17:06 437.250
BUGSAT 1 26 Jan 22:11:36 22:15:05 24° 94° (E) 22:18:37 437.445
TIGRISAT 26 Jan 22:13:09 22:17:34 53° 99° (E) 22:21:52 435.000
HUMSAT D 26 Jan 22:15:11 22:18:59 28° 265° (W) 22:22:46 437.325/437.525
AIST 1 26 Jan 22:16:51 22:21:12 70° 80° (E) 22:25:33
UWE-3 26 Jan 22:17:08 22:20:02 16° 272° (W) 22:22:45 435.000/436.395/437.385
50 SAT 26 Jan 22:17:30 22:21:16 33° 264° (W) 22:25:01 437.505
POPSAT HIP 1 26 Jan 22:18:49 22:22:50 37° 97° (E) 22:26:50 437.405
DUCHIFAT 1 26 Jan 22:23:08 22:27:13 41° 98° (E) 22:31:17 145.980
VELOX 1 26 Jan 22:39:40 22:43:00 20° 268° (W) 22:46:14 145.980
SWISSCUBE 26 Jan 22:48:37 22:49:58 11° 59° (ENE) 22:51:34 437.505
SPROUT 26 Jan 22:51:56 22:56:10 58° 74° (ENE) 23:00:27 437.525
CUBEBUG 1 26 Jan 22:55:54 22:59:47 31° 264° (W) 23:03:40 437.445
NANOSAT C BR1 26 Jan 22:56:55 23:01:15 83° 284° (WNW) 23:05:33 145.865
BEESAT 26 Jan 23:03:39 23:06:12 15° 62° (ENE) 23:08:57 436.000
UNISAT 6 26 Jan 23:04:43 23:09:00 43° 289° (WNW) 23:13:09 437.425
ITUPSAT 1 26 Jan 23:05:39 23:08:17 15° 62° (ENE) 23:11:06 437.325
ISS 26 Jan 23:07:51 23:11:08 75° 328° (NNW) 23:14:27 145.825
QB50P2 26 Jan 23:09:39 23:13:55 59° 286° (WNW) 23:18:09 145.880/145.840
QB50P1 26 Jan 23:20:06 23:24:15 46° 288° (WNW) 23:28:22 145.935-145.965
POLYITAN 1 26 Jan 23:33:09 23:37:05 34° 290° (WNW) 23:40:57 437.675
TISAT 1 26 Jan 23:39:04 23:43:05 41° 262° (W) 23:47:09 437.305
ANTELSAT 26 Jan 23:41:17 23:44:34 20° 295° (WNW) 23:47:41 437.575/2403.000
ESTCUBE 1 26 Jan 23:42:51 23:44:02 11° 273° (W) 23:44:55 437.505/2401.250
BUGSAT 1 26 Jan 23:46:50 23:50:38 31° 291° (WNW) 23:54:24 437.445
TIGRISAT 26 Jan 23:51:03 23:53:56 17° 296° (WNW) 23:56:38 435.000
POPSAT HIP 1 26 Jan 23:55:12 23:58:33 21° 293° (WNW) 00:01:46 437.405
AIST 1 26 Jan 23:57:28 23:58:21 10° 275° (W) 23:58:57
DUCHIFAT 1 26 Jan 23:59:40 00:02:50 20° 294° (WNW) 00:05:52 145.980
KKS-1 27 Jan 00:09:56 00:11:58 13° 62° (ENE) 00:14:13 437.445
SWISSCUBE 27 Jan 00:22:25 00:27:11 88° 84° (E) 00:32:00 437.505
Oscar 19 27 Jan 00:24:00 00:28:02 23° 92° (E) 00:32:09 437.125/150
O/OREOS (USA 219) 27 Jan 00:25:08 00:25:51 10° 45° (NE) 00:26:47 437.305
SPROUT 27 Jan 00:30:36 00:32:44 13° 272° (W) 00:34:41 437.525
BEESAT 27 Jan 00:38:50 00:43:34 69° 258° (WSW) 00:48:20 436.000
ITUPSAT 1 27 Jan 00:40:58 00:45:42 67° 258° (WSW) 00:50:28 437.325
ISS 27 Jan 00:45:24 00:48:04 22° 347° (NNW) 00:50:45 145.825
